Location: William D. McDowell Observatory
(40.7857°N, 74.1054°W)
Time: 15:41:35
(UTC-05:00)

N. Korean satellite - Visible Passes

Search period start: 18 November 2018 00:00
Search period end: 28 November 2018 00:00
Orbit: 457 x 511 km, 97.2° (Epoch: 18 November)

Date Brightness Start Highest point End Pass type
(mag) Time Alt. Az. Time Alt. Az. Time Alt. Az.
18 Nov 9.4 05:34:01 10° NE 05:36:41 21° E 05:39:21 10° SE visible
18 Nov 7.2 17:41:58 10° S 17:45:32 58° W 17:49:03 10° NNW visible
19 Nov 10.3 05:11:32 10° E 05:12:01 10° E 05:12:29 10° E visible
19 Nov 6.5 17:17:29 10° SSE 17:21:02 63° ENE 17:24:34 10° N visible
20 Nov 9.8 18:27:55 10° SW 18:30:07 15° W 18:32:19 10° NW visible
21 Nov 8.1 05:53:26 10° NNE 05:56:41 38° E 05:59:54 10° SSE visible
21 Nov 8.6 18:02:17 10° SSW 18:05:29 30° W 18:08:40 10° NNW visible
22 Nov 9.6 05:29:34 10° NE 05:32:03 18° E 05:34:32 10° SE visible
22 Nov 6.9 17:37:23 10° S 17:40:56 67° W 17:44:27 10° NNW visible
23 Nov 6.6 17:12:57 10° SSE 17:16:27 54° ENE 17:19:53 10° N visible
24 Nov 6.7 06:13:08 10° NNE 06:16:35 76° ESE 06:20:02 10° S visible
24 Nov 9.6 18:23:04 10° SW 18:25:29 17° W 18:27:52 10° NW visible
25 Nov 8.4 05:48:51 10° NNE 05:52:02 33° E 05:55:11 10° SSE visible
25 Nov 8.3 17:57:35 10° SSW 18:00:51 34° W 18:04:05 10° NNW visible
26 Nov 9.7 05:25:06 10° NE 05:27:22 16° E 05:29:40 10° SE visible
26 Nov 6.6 17:32:44 10° S 17:36:17 77° WSW 17:39:47 10° NNW visible
27 Nov 6.7 17:08:24 10° SSE 17:11:48 47° ENE 17:15:10 10° N visible
